[[{"header":{"parameterUnit":"m.s-1","parameterCategory":1,"la1":30.2991,"la2":30.254,"lo1":-89.0895,"lo2":-89.0444,"dy":0.0017,"dx":0.0017,"nx":28,"ny":28,"refTime":"2024-05-07T03:00:00:Z","depth":0,"parameterNumber":2,"parameterNumberName":"U-component_of_WINDS"},"data":[0,0,0,0,0,0,0,0,0,0,0,0,0,0,0,0,0,0,0,0,0,0,0,0,0,0,0,0,0,0,0,0,0,0,0,0,0,0,0,0,0,0,0,0,0,0,0,0,0,0,0,0,0,0,0,0,0,0,-2.2803,-2.2803,0,-2.2801,-2.2801,-2.2801,-2.2747,-2.2746,-2.2744,-2.2743,-2.2743,-2.2744,-2.2745,0,0,0,0,0,0,0,0,0,0,0,0,0,-2.2763,-2.2764,-2.2803,-2.2803,-2.2803,-2.2801,-2.2801,-2.2801,-2.2747,-2.2746,-2.2744,-2.2742,-2.2742,-2.2744,-2.2745,0,0,0,0,0,0,0,0,0,0,0,0,0,-2.2773,-2.2764,-2.2803,-2.2776,-2.2774,-2.2801,-2.2801,-2.2801,-2.2748,-2.2746,-2.2744,-2.2742,-2.2742,-2.2744,-2.2745,-2.28,0,0,-2.2751,-2.2752,0,0,0,0,0,0,0,0,-2.2772,-2.2774,-2.278,-2.2778,-2.2775,-2.2772,-2.2787,-2.2801,-2.2748,-2.2758,-2.2743,-2.2741,-2.2754,-2.2755,-2.2759,-2.28,-2.28,-2.2752,-2.2753,-2.2754,-2.2754,0,0,0,0,0,0,0,-2.2772,-2.2774,-2.2802,-2.278,-2.2777,-2.2765,-2.2764,-2.2789,-2.2768,-2.2757,-2.2753,-2.2753,-2.2753,-2.2758,-2.2759,-2.28,-2.2752,-2.2753,-2.2754,-2.2755,-2.2885,-2.2887,0,0,0,0,0,0,-2.2774,-2.2774,-2.2802,-2.2802,-2.2768,-2.2767,-2.2766,-2.2775,-2.2767,-2.2764,-2.2755,-2.2751,-2.2755,-2.2757,-2.2759,-2.2822,-2.2754,-2.2755,-2.2757,-2.2883,-2.2886,-2.2888,0,0,0,0,0,0,-2.2774,-2.2777,-2.2803,-2.2787,-2.2789,-2.277,-2.2781,-2.2776,-2.2781,-2.2766,-2.2762,-2.2764,-2.2754,-2.2756,-2.279,-2.2821,-2.2756,-2.2758,-2.288,-2.2884,-2.2887,-2.2948,0,0,0,0,0,0,-2.2773,-2.2777,-2.2797,-2.2788,-2.279,-2.2833,-2.2783,-2.2778,-2.2785,-2.2779,-2.2773,-2.277,-2.2752,-2.2787,-2.2792,-2.2822,-2.276,-2.2877,-2.2882,-2.2886,-2.2943,-2.2953,-2.2962,0,0,0,0,0,-2.2771,-2.2814,-2.2798,-2.2802,-2.2814,-2.2835,-2.2836,-2.2814,-2.2787,-2.2807,-2.2798,-2.2771,-2.2817,-2.2791,-2.2796,-2.2828,-2.2875,-2.2881,-2.2886,-2.2939,-2.2951,-2.2961,0,0,0,0,0,0,-2.2828,-2.2813,-2.2795,-2.2836,-2.2837,-2.2826,-2.285,-2.2828,-2.2837,-2.2831,-2.2804,-2.2803,-2.2842,-2.2838,-2.281,-2.288,-2.2842,-2.2848,-2.2881,-2.2892,-2.2901,-2.2901,-2.2761,0,0,0,0,0,-2.2845,-2.2863,-2.2849,-2.2887,-2.2888,-2.2869,-2.2878,-2.286,-2.2861,-2.2861,-2.2854,-2.2856,-2.2871,-2.2882,-2.2895,-2.2943,-2.2941,-2.2967,-2.2977,-2.2984,-2.299,-2.3016,-2.3027,-2.2905,-2.2905,-2.2905,0,0,-2.2881,-2.2875,-2.2887,-2.2898,-2.2897,-2.2916,-2.287,-2.2892,-2.2907,-2.2865,-2.2896,-2.2891,-2.2892,-2.2933,-2.2951,-2.2932,-2.3023,-2.2991,-2.2997,-2.2998,-2.3022,-2.3034,-2.3044,-2.2909,-2.2908,-2.2907,0,0,-2.2956,-2.2953,-2.2984,-2.2984,-2.2983,-2.2971,-2.2979,-2.2971,-2.2966,-2.2997,-2.2967,-2.2984,-2.301,-2.3012,-2.3017,-2.3095,-2.307,-2.31,-2.3148,-2.3173,-2.3183,-2.3191,-2.3219,-2.3229,-2.3106,-2.3106,-2.3106,0,-2.3,-2.3027,-2.3003,-2.3028,-2.3033,-2.2997,-2.3029,-2.303,-2.3034,-2.3039,-2.3017,-2.305,-2.3048,-2.309,-2.3109,-2.3114,-2.3122,-2.3099,-2.3183,-2.3192,-2.3199,-2.3225,-2.3236,-2.3109,-2.3109,-2.3108,-2.3108,0,-2.3082,-2.3102,-2.3128,-2.3132,-2.3141,-2.3169,-2.315,-2.3162,-2.3145,-2.3135,-2.3168,-2.3165,-2.3177,-2.3186,-2.3169,-2.3225,-2.3213,-2.3188,-2.3148,-2.3215,-2.3239,-2.3249,-2.3114,-2.3113,-2.3112,-2.3111,0,0,-2.3191,-2.3183,-2.3192,-2.3194,-2.3191,-2.3206,-2.3234,-2.3245,-2.3256,-2.3261,-2.3283,-2.3308,-2.3284,-2.329,-2.3273,-2.3296,-2.3358,-2.3268,-2.3267,-2.3284,-2.342,-2.3439,-2.3451,-2.3342,-2.3344,-2.3346,-2.342,0,-2.3263,-2.3308,-2.3288,-2.3335,-2.3354,-2.332,-2.3344,-2.3346,-2.3338,-2.3353,-2.3345,-2.3362,-2.333,-2.3333,-2.3354,-2.3346,-2.3385,-2.3341,-2.3363,-2.3364,-2.3363,-2.3463,-2.3483,-2.3553,-2.343,-2.3431,-2.3432,0,-2.3353,-2.3361,-2.341,-2.3405,-2.3412,-2.3433,-2.3443,-2.3457,-2.3459,-2.3452,-2.3459,-2.3438,-2.3465,-2.3427,-2.3465,-2.3435,-2.3444,-2.3442,-2.3444,-2.3444,-2.3402,-2.3466,-2.3575,-2.3585,-2.3447,-2.3446,-2.3445,0,-2.3427,-2.345,-2.3483,-2.3485,-2.348,-2.3496,-2.3495,-2.3494,-2.3503,-2.3512,-2.3517,-2.353,-2.3536,-2.3547,-2.353,-2.3504,-2.3571,-2.3531,-2.3566,-2.3566,-2.358,-2.3579,-2.3691,-2.3587,-2.3587,-2.3587,-2.3587,0,-2.3509,-2.354,-2.3516,-2.3536,-2.357,-2.3548,-2.3583,-2.3578,-2.3579,-2.3598,-2.357,-2.3589,-2.3566,-2.3583,-2.3571,-2.3604,-2.3608,-2.3603,-2.3599,-2.3605,-2.3605,-2.3609,-2.3604,-2.359,-2.3589,-2.3588,-2.3588,0,-2.3597,-2.3581,-2.3615,-2.3607,-2.3606,-2.3632,-2.3626,-2.3645,-2.3636,-2.3661,-2.3666,-2.3652,-2.367,-2.3655,-2.3673,-2.3665,-2.3709,-2.3699,-2.3708,-2.3705,-2.3741,-2.3738,-2.3859,-2.3873,-2.3761,-2.3762,-2.3763,0,-2.3649,-2.3673,-2.3668,-2.3679,-2.3679,-2.3697,-2.3705,-2.3685,-2.3695,-2.37,-2.3718,-2.3735,-2.3746,-2.3778,-2.377,-2.3784,-2.3774,-2.3815,-2.3775,-2.3781,-2.3774,-2.3772,-2.3775,-2.3823,-2.3824,-2.3825,-2.3826,0,-2.3745,-2.3737,-2.375,-2.3761,-2.3772,-2.378,-2.3786,-2.3796,-2.3775,-2.3789,-2.3807,-2.3817,-2.3836,-2.3852,-2.3864,-2.3864,-2.3842,-2.3839,-2.3848,-2.3853,-2.3858,-2.3856,-2.373,-2.3836,-2.3835,-2.3834,-2.3834,-2.3833,-2.3817,-2.3836,-2.3836,-2.3852,-2.3854,-2.3861,-2.3878,-2.3871,-2.3886,-2.39,-2.3887,-2.391,-2.3912,-2.3926,-2.3928,-2.3946,-2.3929,-2.3942,-2.3945,-2.3948,-2.3953,-2.3856,-2.3948,-2.3948,-2.3948,-2.3948,-2.3947,0,-2.3911,-2.3909,-2.3924,-2.3933,-2.3946,-2.3924,-2.393,-2.3942,-2.3963,-2.3966,-2.3979,-2.4001,-2.4017,-2.4011,-2.4026,-2.4042,-2.4032,-2.4046,-2.4045,-2.4045,-2.3968,-2.3958,-2.4054,-2.4054,-2.4054,-2.4054,-2.4054,-2.4054,-2.3961,-2.3993,-2.3985,-2.4018,-2.4016,-2.4038,-2.4043,-2.4049,-2.4052,-2.4078,-2.4091,-2.4087,-2.4087,-2.4102,-2.4117,-2.4115,-2.4121,-2.4139,-2.4133,-2.4061,-2.405,-2.404,-2.4031,-2.4141,-2.4141,-2.4209,-2.421,-2.421]},{"header":{"parameterUnit":"m.s-1","parameterCategory":1,"la1":30.2991,"la2":30.254,"lo1":-89.0895,"lo2":-89.0444,"dy":0.0017,"dx":0.0017,"nx":28,"ny":28,"refTime":"2024-05-07T03:00:00:Z","depth":0,"parameterNumber":3,"parameterNumberName":"V-component_of_WINDS"},"data":[0,0,0,0,0,0,0,0,0,0,0,0,0,0,0,0,0,0,0,0,0,0,0,0,0,0,0,0,0,0,0,0,0,0,0,0,0,0,0,0,0,0,0,0,0,0,0,0,0,0,0,0,0,0,0,0,0,0,5.6314,5.6314,0,5.6297,5.6297,5.6296,5.6303,5.6304,5.6304,5.6305,5.6282,5.6281,5.628,0,0,0,0,0,0,0,0,0,0,0,0,0,5.6351,5.6351,5.6314,5.6314,5.6314,5.6297,5.6297,5.6296,5.6303,5.6304,5.6304,5.6305,5.6282,5.6281,5.628,0,0,0,0,0,0,0,0,0,0,0,0,0,5.6335,5.635,5.6315,5.6316,5.6315,5.6297,5.6297,5.6296,5.6303,5.6304,5.6304,5.6305,5.6283,5.6281,5.628,5.6258,0,0,5.6275,5.6274,0,0,0,0,0,0,0,0,5.6336,5.6333,5.6316,5.6315,5.6315,5.6303,5.6301,5.6283,5.6303,5.6308,5.6305,5.6305,5.6288,5.6286,5.6281,5.6256,5.6255,5.6275,5.6274,5.6273,5.6273,0,0,0,0,0,0,0,5.6337,5.6334,5.6307,5.6315,5.6315,5.6316,5.6314,5.6298,5.6294,5.6307,5.6308,5.6306,5.6288,5.6283,5.6281,5.6255,5.6275,5.6274,5.6273,5.6272,5.6213,5.6213,0,0,0,0,0,0,5.6338,5.6335,5.6308,5.6307,5.6327,5.6315,5.6313,5.6306,5.6295,5.6294,5.6305,5.6306,5.6285,5.6283,5.628,5.6254,5.6273,5.6272,5.6271,5.6214,5.6213,5.6212,0,0,0,0,0,0,5.6339,5.6336,5.6309,5.6321,5.6318,5.6314,5.6306,5.6306,5.63,5.6293,5.6292,5.6301,5.6285,5.6282,5.6264,5.6254,5.6271,5.627,5.6215,5.6214,5.6213,5.6202,0,0,0,0,0,0,5.634,5.6336,5.6328,5.6321,5.6317,5.6293,5.6305,5.6305,5.6298,5.6299,5.6289,5.6287,5.6286,5.6266,5.6262,5.6252,5.6269,5.6216,5.6214,5.6213,5.6204,5.6201,5.6199,0,0,0,0,0,5.6342,5.6325,5.6328,5.6324,5.6307,5.6293,5.629,5.629,5.6297,5.6289,5.6285,5.6288,5.6256,5.6264,5.626,5.6249,5.6216,5.6215,5.6213,5.6205,5.6202,5.6199,0,0,0,0,0,0,5.6328,5.6323,5.6327,5.6307,5.6301,5.6294,5.6283,5.6287,5.6277,5.6278,5.6277,5.6274,5.6256,5.625,5.626,5.6228,5.6237,5.6234,5.6232,5.6229,5.6227,5.6228,5.6267,0,0,0,0,0,5.6324,5.6314,5.6309,5.6292,5.6289,5.6287,5.6281,5.6282,5.6274,5.627,5.6265,5.6256,5.6245,5.6237,5.6225,5.6203,5.6201,5.6194,5.6192,5.619,5.6188,5.6177,5.6174,5.6207,5.6208,5.6208,0,0,5.6313,5.6309,5.6302,5.629,5.6285,5.6274,5.6284,5.6272,5.6263,5.6268,5.6251,5.6247,5.6237,5.6218,5.6209,5.6213,5.6178,5.6188,5.6187,5.6185,5.6175,5.6172,5.6169,5.6206,5.6207,5.6207,0,0,5.6287,5.6284,5.627,5.6265,5.6259,5.6258,5.6255,5.6248,5.6246,5.623,5.6233,5.6223,5.6202,5.6196,5.619,5.6166,5.6168,5.6162,5.615,5.6139,5.6137,5.6134,5.6126,5.6123,5.616,5.616,5.616,0,5.6274,5.6259,5.6262,5.625,5.6244,5.6251,5.6237,5.6232,5.6221,5.6217,5.6222,5.6198,5.6192,5.6172,5.6166,5.6161,5.6157,5.6162,5.6137,5.6135,5.6133,5.6125,5.6122,5.6159,5.6159,5.6159,5.6159,0,5.6244,5.6233,5.6223,5.6215,5.6208,5.6195,5.6195,5.6188,5.619,5.6189,5.6173,5.6166,5.6154,5.615,5.615,5.613,5.6133,5.6138,5.6147,5.6129,5.6121,5.6118,5.6158,5.6158,5.6159,5.6159,0,0,5.6207,5.6203,5.6199,5.6197,5.6191,5.6182,5.617,5.6161,5.6155,5.6148,5.6137,5.6121,5.6127,5.612,5.612,5.6111,5.6093,5.6117,5.6117,5.6113,5.6071,5.6067,5.6064,5.6096,5.6095,5.6095,5.6072,0,5.6182,5.6162,5.6165,5.6145,5.6136,5.6143,5.6132,5.6128,5.6126,5.6118,5.6116,5.6105,5.6112,5.6109,5.61,5.6097,5.6085,5.6099,5.6085,5.6085,5.6087,5.606,5.6055,5.6034,5.6069,5.6069,5.6068,0,5.6149,5.6143,5.6123,5.6121,5.6117,5.6108,5.61,5.6092,5.6087,5.6087,5.6081,5.6084,5.6071,5.6081,5.6064,5.6074,5.6069,5.6067,5.6066,5.6064,5.6075,5.6057,5.6027,5.6024,5.6064,5.6064,5.6064,0,5.6125,5.6112,5.6099,5.6096,5.6093,5.6087,5.6085,5.6081,5.6075,5.6069,5.6065,5.6057,5.6052,5.6045,5.6045,5.6052,5.6028,5.6038,5.6027,5.6027,5.602,5.6021,5.5989,5.6018,5.6018,5.6018,5.6018,0,5.6096,5.6083,5.6089,5.608,5.6067,5.6071,5.6057,5.6056,5.6053,5.6044,5.6049,5.6041,5.6042,5.6034,5.6034,5.602,5.6017,5.6017,5.6017,5.6016,5.6016,5.6012,5.6013,5.6017,5.6017,5.6017,5.6017,0,5.6067,5.607,5.6056,5.6055,5.6055,5.6045,5.6044,5.6036,5.6036,5.6026,5.6023,5.6023,5.6014,5.6014,5.6002,5.6003,5.5986,5.5988,5.5988,5.5988,5.5978,5.5979,5.5942,5.5938,5.5969,5.5969,5.5968,0,5.6048,5.6039,5.6038,5.6034,5.6032,5.6024,5.602,5.6024,5.6019,5.6014,5.6007,5.5998,5.5992,5.5976,5.5975,5.5966,5.5968,5.5956,5.5966,5.5967,5.5968,5.5968,5.5968,5.5953,5.5953,5.5953,5.5952,0,5.6014,5.6017,5.6011,5.6006,5.6001,5.5997,5.5993,5.5989,5.5993,5.5987,5.5979,5.5974,5.5964,5.5955,5.5948,5.5945,5.5949,5.595,5.5947,5.5945,5.5946,5.5946,5.5982,5.595,5.595,5.595,5.595,5.5951,5.5989,5.5982,5.5981,5.5975,5.5973,5.5971,5.5964,5.5965,5.5958,5.5951,5.5954,5.5945,5.5941,5.5932,5.5929,5.5922,5.5926,5.5921,5.592,5.5919,5.5918,5.5948,5.592,5.592,5.592,5.592,5.592,0,5.5956,5.5957,5.5951,5.5947,5.5942,5.5949,5.5946,5.5941,5.5933,5.5931,5.5925,5.5916,5.5909,5.5908,5.5901,5.5895,5.5897,5.5893,5.5893,5.5892,5.5914,5.5918,5.5892,5.5892,5.5892,5.5892,5.5892,5.5892,5.5938,5.5927,5.593,5.5918,5.5919,5.5911,5.5909,5.5906,5.5904,5.5895,5.5889,5.589,5.5888,5.5881,5.5874,5.5874,5.5871,5.5867,5.5867,5.5888,5.5891,5.5893,5.5896,5.5866,5.5866,5.5846,5.5846,5.5846]}]]